Regional Weather Roundup
Issued by NWS State College, PA

Home | Current Version | Previous Version | Text Only | Print | Product List | Glossary Off
Versions: 1 2 3 4 5 6 7 8 9 10 11 12 13 14 15 16 17 18 19 20 21 22 23 24 25 26 27 28 29 30 31 32 33 34 35 36 37 38 39 40 41 42 43 44 45 46 47 48 49 50

000
ASUS41 KCTP 220110
RWRCTP

REGIONAL WEATHER ROUNDUP
NATIONAL WEATHER SERVICE STATE COLLEGE PA
800 PM EST TUE NOV 21 2017

Note: "fair" indicates few or no clouds below 12,000 feet with no
significant weather and/or obstructions to visibility.

* = STATION THAT DOES NOT REPORT PRECIPITATION /E.G. RAIN...SNOW...ETC/
    THUNDER OR FOG.

PAZ002>004-007>009-013>016-020>023-029>032-220200-
WESTERN PENNSYLVANIA

CITY           SKY/WX    TMP DP  RH WIND       PRES   REMARKS
ERIE           CLOUDY    50  30  46 SW13G22   29.86S
MEADVILLE      NOT AVBL
FRANKLIN*      CLOUDY    45  27  49 SW5       29.90S
NEW CASTLE     FAIR      47  29  49 VRB5      29.91S
BEAVER COUNTY  CLEAR    N/A N/A N/A S5        29.91S
BUTLER*        PTCLDY    48  29  47 S6        29.92S
PITTSBURGH INT CLOUDY    47  30  51 S5        29.92S
PITTSBURGH     CLEAR     50  26  39 S7        29.92S
INDIANA*       CLEAR     37  30  75 CALM      29.97S
LATROBE        CLEAR     41  28  60 SW6       29.95S
WASHINGTON CO* CLOUDY    41  30  65 S6        29.95S
$$

PAZ004>006-010>012-017>019-024>028-033>037-041-042-045-046-049>053-220200-
CENTRAL PENNSYLVANIA

CITY           SKY/WX    TMP DP  RH WIND       PRES   REMARKS
BRADFORD       CLEAR     44  26  49 SW7       29.88S
DUBOIS         CLEAR     44  25  47 SW7       29.90S
CLEARFIELD     CLEAR     44  25  47 CALM      29.93S
JOHNSTOWN      CLEAR     48  25  40 SW12      29.93S
ALTOONA        CLEAR     45  25  45 CALM      29.95R
STATE COLLEGE  CLEAR     45  25  45 SW6       29.95R
WILLIAMSPORT   CLEAR     51  28  41 VRB3      29.95R
SELINSGROVE    CLEAR     43  30  60 CALM      29.98S
FT INDIANTOWN  CLEAR     38  31  76 NE3       29.99F
CAPITAL CITY   CLEAR     42  31  64 CALM      29.99F
HARRISBURG     CLEAR     40  32  73 CALM      29.99F
YORK           CLEAR     50  39  66 S7        29.99F
$$

PAZ038>040-043-044-047-048-054-055-060>062-067>071-220200-
EASTERN PENNSYLVANIA

CITY           SKY/WX    TMP DP  RH WIND       PRES   REMARKS
SCRANTON       CLEAR     47  29  49 S5        29.98S
MOUNT POCONO   CLEAR     41  30  65 SW3       30.00R
ALLENTOWN      CLEAR     41  30  65 CALM      30.02S
QUAKERTOWN*    CLEAR     41  34  75 CALM      30.03S
READING        CLEAR     48  37  65 CALM      30.00F
LANCASTER      CLEAR     45  37  73 E3        30.01S
COATESVILLE    CLOUDY    50  41  71 S8        30.03S
POTTSTOWN      CLEAR     47  36  65 S3        30.04S
BLUE BELL      CLOUDY    50  41  71 S8        30.04F
DOYLESTOWN     CLEAR     49  38  65 SW5       30.02F
WILLOW GROVE   NOT AVBL
NORTH PHILA    CLOUDY    54  41  61 SW8       30.05F
PHILADELPHIA   MOCLDY    54  40  59 SW8       30.04F
$$




USA.gov is the U.S. government's official web portal to all federal, state and local government web resources and services.